Flag for Vanuatu

Past Weather in Port Vila, Vanuatu — Yesterday and Last 2 Weeks

Now
73 °F

Broken clouds.


Feels Like: 72 °F
Forecast: 77 / 73 °F
Wind: 15 mph from Southeast

Location: Bauerfield Efate

Current Time: Jul 10, 2020 at 5:29:09 pm

Latest Report: Jul 10, 2020 at 4:00 pm


Visibility: N/A

Pressure: 29.98 "Hg

Humidity: 89%

Dew Point: 70 °F

Location of Port VilaLocation

Past Weather in Port Vila — Graph

°F

Port Vila Temperature Yesterday

Maximum temperature yesterday: 77 °F (at 11:00 am)
Minimum temperature yesterday: 70 °F (at 3:00 am)
Average temperature yesterday: 73 °F

High & Low Weather Summary for the Past Weeks

 TemperatureHumidityPressure
High81 °F (Jul 4, 1:00 pm)100% (Jun 25, 5:00 pm)30.09 "Hg (Jun 25, 5:00 pm)
Low57 °F (Jul 2, 4:00 am)54% (Jul 3, 11:00 am)29.89 "Hg (Jun 25, 4:00 pm)
Average72 °F85%29.98 "Hg
* Reported Jun 25 4:00 pm — Jul 10 4:00 pm, Port Vila. Weather by CustomWeather, © 2020

Note: Actual official high and low records may vary slightly from our data, if they occured in-between our weather recording intervals... More about our weather records

Port Vila Weather History for the Previous 24 Hours

Scroll right to see more
 ConditionsComfort  
Time TempWeatherWind HumidityBarometerVisibility
4:00 pm
Fri, Jul 10
73 °FBroken clouds.15 mph89%29.98 "HgN/A
3:11 pm73 °FSprinkles. Mostly cloudy.14 mph94%29.98 "HgN/A
2:00 pm75 °FBroken clouds.9 mph83%29.98 "HgN/A
1:07 pm73 °FLots of rain. Mostly cloudy.14 mph94%30.01 "HgN/A
12:30 pm73 °FRain. Mostly cloudy.14 mph94%30.01 "Hg4 mi
12:20 pm73 °FSprinkles. Mostly cloudy.13 mph94%30.01 "HgN/A
11:00 am75 °FDrizzle. Broken clouds.17 mph83%30.04 "HgN/A
10:00 am75 °FMostly cloudy.16 mph83%30.04 "HgN/A
9:00 am73 °FMostly cloudy.13 mph83%30.04 "HgN/A
8:00 am73 °FMostly cloudy.12 mph89%30.07 "HgN/A
7:03 am70 °FDrizzle. Mostly cloudy.3 mph94%30.04 "HgN/A
6:00 am72 °FMostly cloudy.7 mph88%30.01 "HgN/A
5:00 am72 °FPartly cloudy.7 mph83%30.01 "HgN/A
4:00 am72 °FPassing clouds.6 mph83%30.01 "HgN/A
3:00 am72 °FPassing clouds.6 mph83%30.01 "HgN/A
2:00 am72 °FPassing clouds.6 mph78%30.04 "HgN/A
1:00 am72 °FPartly cloudy.9 mph83%30.04 "HgN/A
12:00 am72 °FMostly cloudy.8 mph83%30.04 "HgN/A
11:00 pm
Thu, Jul 9
72 °FMostly cloudy.9 mph83%30.04 "HgN/A
10:00 pm72 °FMostly cloudy.8 mph88%30.04 "HgN/A
9:00 pm72 °FMostly cloudy.8 mph88%30.04 "HgN/A
8:00 pm70 °FMostly cloudy.7 mph94%30.04 "HgN/A
7:00 pm72 °FMostly cloudy.7 mph94%30.04 "HgN/A
6:00 pm72 °FMostly cloudy.12 mph94%30.04 "HgN/A
5:00 pm73 °FMostly cloudy.13 mph83%30.01 "HgN/A
Weather by CustomWeather, © 2020

See weather overview